#timestamp,LO_Frequency,Hit,StdDev 
1552737615.5,286047006.9,N
1552737635.3,286047004.8,N
1552737655.1,286047004.1,N
1552737675.9,286047005.6,N
1552737695.7,286047003.0,N
1552737715.5,286047004.2,N
1552737735.4,286047003.2,N
1552737755.2,286047003.8,N
1552737775.0,286047006.0,N
1552737775.9,286047006.0,N
1552737795.8,286047001.7,N
1552737815.6,286047003.2,N
1552737835.5,286047003.1,N
1552737855.3,286047001.3,N
1552737875.1,286047001.9,N
1552737895.9,286047004.3,N
1552737915.7,286047002.7,N
1552737935.6,286047002.3,N
1552737955.4,286047004.0,N
1552737975.2,286047004.2,N
1552737995.1,286047004.4,N
1552737996.0,286047004.4,N
1552738015.8,286047002.8,N
1552738035.6,286047002.7,N
1552738055.5,286047001.6,N
1552738075.3,286047004.1,N
1552738095.2,286047004.3,N
1552738115.0,286047003.9,N
1552738115.9,286047003.9,N
1552738135.8,286047002.1,N
1552738155.6,286047001.6,N
1552738175.4,286047003.1,N
1552738195.3,286047003.5,N
1552738215.1,286047004.0,Y
1552738235.8,286046998.7,P
1552738255.7,286046998.3,N
1552738275.5,286046997.9,N
1552738295.4,286046995.9,N
1552738315.2,286046995.1,N
1552738335.0,286046995.0,N
1552738335.9,286046995.0,N
1552738355.8,286046996.8,N
1552738375.6,286046995.1,N
1552738395.4,286046995.1,N
1552738415.3,286046995.8,N
1552738435.1,286046996.1,N
1552738455.9,286046993.7,N
1552738475.7,286046993.4,N
1552738495.5,286046996.0,N
1552738515.4,286046995.6,N
1552738535.2,286046995.8,N
1552738555.0,286046996.7,N
1552738555.9,286046996.7,N
1552738575.8,286046997.0,N
1552738595.6,286046998.6,N
1552738615.4,286046998.5,N
1552738635.3,286046998.9,N
1552738655.1,286046996.5,N
1552738675.9,286046998.7,N
1552738695.7,286046996.7,N
1552738715.5,286046999.3,N
1552738735.4,286046999.6,N
1552738755.2,286046996.8,N
1552738775.0,286046997.4,N
1552738775.9,286046997.4,N
1552738795.8,286046999.4,N
1552738815.6,286046995.9,N
1552738865.5,286046995.5,E
1552738875.4,286046996.9,N
1552738895.2,286047000.9,P
1552738915.1,286047001.6,N
1552738916.0,286047001.6,N
1552738935.8,286047002.5,N
1552738955.7,286047001.9,N
1552738975.5,286047001.6,N
1552738995.4,286047017.9,Y
1552739015.2,286047019.1,P
1552739035.1,286047013.1,N
1552739036.0,286047013.1,N
1552739055.8,286047010.8,N
1552739075.6,286047007.1,N
1552739095.5,286047007.1,N
1552739115.3,286047004.9,N
1552739135.2,286047004.5,N
1552739155.9,286047007.6,N
1552739175.7,286047004.8,N
1552739195.6,286047004.7,N
1552739215.4,286047003.8,N
1552739235.2,286047004.0,N
1552739255.1,286047001.3,N
1552739256.0,286047001.3,N
1552739275.8,286047001.7,N
1552739295.7,286047004.0,N
1552739315.5,286047003.1,N
1552739335.3,286047002.9,N
1552739355.2,286047005.5,N
1552739375.0,286047003.7,N
1552739375.9,286047003.7,N
1552739395.7,286047003.5,N
1552739415.6,286047003.6,N
1552739435.4,286047003.1,N
1552739455.3,286047003.4,N
1552739475.1,286047003.6,N
1552739476.0,286047003.6,N
1552739495.8,286047003.2,N
1552739515.7,286047004.0,N
1552739535.5,286047003.5,N
1552739555.3,286047003.4,N
1552739575.2,286047001.8,N
1552739595.0,286047002.6,N
1552739595.9,286047002.6,N
1552739615.8,286047002.8,N
1552739635.6,286047002.5,N
1552739655.4,286046999.8,N
1552739675.3,286046999.9,N
1552739695.1,286046998.2,N
1552739715.9,286047001.1,N
1552739735.7,286047000.9,N
1552739755.5,286047000.7,N
1552739775.4,286046998.2,N
1552739795.2,286046998.9,N
1552739815.0,286047000.8,N
1552739816.0,286047000.8,N
1552739835.8,286047000.2,N
1552739855.6,286046998.3,N
1552739875.5,286046999.4,N
1552739895.3,286047000.8,N
1552739915.1,286047002.3,N
1552739935.9,286047002.3,N
1552739955.7,286046998.4,N
1552739975.5,286047000.7,N
1552739995.4,286047000.6,N
1552740015.2,286047001.2,N
1552740035.1,286047002.5,N
1552740036.0,286047002.5,N
1552740055.8,286047000.5,N
1552740075.6,286047000.1,N
1552740095.5,286047000.1,N
1552740115.3,286046999.8,N
1552740135.1,286047000.2,N
1552740155.9,286047002.4,N
1552740175.7,286047001.4,N
1552740195.6,286047001.4,N
1552740215.4,286047003.9,Y
1552740235.2,286047002.0,P
1552740255.1,286047000.0,N
1552740256.0,286047000.0,N
1552740275.8,286047000.8,N
1552740295.7,286046998.9,N
1552740315.5,286047000.7,N
1552740335.3,286047000.4,N
1552740355.2,286046998.1,N
1552740375.9,286046998.6,N
1552740395.7,286047002.3,N
1552740415.6,286047002.4,N
1552740435.4,286047002.6,N
1552740455.2,286047002.6,N
1552740475.1,286047001.2,N
1552740476.0,286047001.2,N
1552740495.8,286046998.3,N
1552740515.7,286046998.9,N
1552740535.5,286046998.3,N
1552740555.3,286047000.1,N
1552740575.2,286047001.5,N
1552740595.0,286047002.2,N
1552740595.9,286047002.2,N
1552740615.7,286047001.4,N
1552740635.6,286047004.4,N
1552740655.4,286047002.0,N
1552740675.3,286047002.4,N
1552740695.1,286047002.1,N
1552740696.0,286047002.1,N
1552740715.8,286047002.7,N
1552740735.7,286047002.0,N
1552740755.5,286047002.1,N
1552740775.3,286047002.2,N
1552740795.2,286047002.1,N
1552740815.0,286047002.4,N
1552740815.9,286047002.4,N
1552740835.8,286047002.6,N
1552740855.6,286047000.0,N
1552740875.4,286047000.5,N
1552740895.3,286047000.9,N
1552740915.1,286047000.5,N
1552740935.9,286047000.8,N
1552740955.7,286046999.7,N
1552740975.5,286047002.4,N
1552740995.4,286047001.6,N
1552741015.2,286047001.9,N
1552741035.0,286047002.1,N
1552741035.9,286047002.1,N
1552741055.8,286047002.1,N
1552741075.6,286047002.1,N
1552741095.4,286047002.2,N
1552741115.3,286047000.3,N
1552741135.1,286047002.8,N
1552741155.9,286047002.2,N
1552741175.7,286047002.2,N
1552741195.5,286047002.4,N
